Regional Weather Roundup
Issued by NWS

Home | Current Version | Previous Version | Text Only | Print | Product List | Glossary On
Versions: 1 2 3 4 5 6 7 8 9 10 11 12 13 14 15 16 17 18 19 20 21 22 23 24 25 26 27 28 29 30 31 32 33 34 35 36 37 38 39 40 41 42 43 44 45 46 47 48 49 50
000
ASUS43 KMPX 272310
RWRMN
WEATHER ROUNDUP FOR MINNESOTA
NATIONAL WEATHER SERVICE TWIN CITIES/CHANHASSEN MN
600 PM CDT THU AUG 27 2015


NOTE: "FAIR" INDICATES FEW OR NO CLOUDS BELOW 12,000 FEET WITH NO
SIGNIFICANT WEATHER AND/OR OBSTRUCTIONS TO VISIBILITY. N/A MEANS
CURRENT SKY AND/OR WEATHER CONDITIONS ARE NOT AVAILABLE.

MNZ060>063-068>070-280000-
   Twin Cities Metro

CITY           SKY/WX    TMP DP  RH WIND       PRES   REMARKS
TWIN CITIES    PTSUNNY   75  59  57 S12       30.01F
ST PAUL        CLOUDY    75  61  61 S15       30.01F
CRYSTAL        PTSUNNY   76  60  57 S10       29.99F
BLAINE         PTSUNNY   75  63  64 S12       30.01F
LAKEVILLE      PTSUNNY   72  61  68 SE5       30.01F
EDEN PRAIRIE   PTSUNNY   73  59  61 S12       30.00F
SOUTH ST PAUL  PTSUNNY   75  58  55 S9        30.01F
LAKE ELMO      PTSUNNY   73  63  68 S9        30.03F
$$
MNZ001>005-007-008-013>017-022>024-027-028-280000-
   Northwest Minnesota

CITY           SKY/WX    TMP DP  RH WIND       PRES   REMARKS
BEMIDJI        CLOUDY    74  64  69 S7        29.96S
HALLOCK        MOSUNNY   79  63  57 S8        29.90F
ROSEAU         SUNNY     77  64  65 SW5       29.93S
WARROAD        SUNNY     72  64  78 E5        29.94S
THIEF RVR FALL PTSUNNY  N/A N/A N/A SW6       29.92S
CROOKSTON      MOSUNNY   77  64  65 SW9       29.93S
FOSSTON        MOSUNNY   75  63  64 S9        29.95S
DETROIT LAKES  CLOUDY    73  64  73 S8        29.97F
MOORHEAD       CLOUDY    75  66  73 SE5       29.93F
PARK RAPIDS    CLOUDY    75  63  66 S7        29.96F
MAHNOMEN       FAIR      74  66  75 S6        29.95S
$$
MNZ006-009>011-018-025>026-280000-
   North Central Minnesota

CITY           SKY/WX    TMP DP  RH WIND       PRES   REMARKS
BAUDETTE       SUNNY     75  60  59 S6        29.94S
FLAG ISLAND    MOSUNNY   72  57  60 SE3       29.92F HAZE
INTL FALLS     SUNNY     73  59  61 CALM      29.95F
WASKISH        SUNNY     75  64  69 S3        29.95S
BIG FORK       MOSUNNY   73  61  64 S6        29.98S
LONGVILLE      CLOUDY    72  64  78 CALM      29.98S
GRAND RAPIDS     N/A     72  61  68 S7        29.99S
CRANE LAKE     PTSUNNY   72  55  56 S2        29.99S
ORR            CLOUDY    73  55  53 S3        29.96S
COOK           MOSUNNY   73  59  60 S6        29.99S
WALKER         CLOUDY    72  63  75 SE5       29.96F
$$
MNZ012-019>021-037-280000-
   Northeast Minnesota

CITY           SKY/WX    TMP DP  RH WIND       PRES   REMARKS
DULUTH         MOSUNNY   68  56  65 SE10      30.02S
ELY            SUNNY     72  52  49 S7        30.00S
HIBBING        PTSUNNY   72  58  61 SE7       30.00R
EVELETH        PTSUNNY   72  59  64 S8        30.01S
DULUTH HARBOR  CLOUDY    57  54  88 CALM      30.03F
TWO HARBORS    CLOUDY    68  57  68 E5        30.01S
SILVER BAY     PTSUNNY   68  55  64 CALM      30.01S
GRAND MARAIS     N/A     60  46  59 CALM      30.02F
G MARAIS ARPRT SUNNY     63  48  59 S6        30.05F
$$
MNZ029>031-032-039>041-046>048-054>057-064-280000-
   West Central Minnesota

CITY           SKY/WX    TMP DP  RH WIND       PRES   REMARKS
FERGUS FALLS   CLOUDY    73  64  73 S6        29.94F
WHEATON        CLOUDY    72  64  78 S3        29.95F
MORRIS         CLOUDY    75  68  78 S3        29.95S
ALEXANDRIA     PTSUNNY   74  65  73 SW5       29.98F
ELBOW LAKE     FAIR      73  66  80 S7        29.96F
WADENA         CLOUDY    73  64  73 S7        29.97S
GLENWOOD       CLOUDY    73  66  78 S6        29.98F
APPLETON       CLOUDY    75  66  73 SW3       29.95S
BENSON         CLOUDY    73  64  73 SW3       29.96S
ORTONVILLE     CLOUDY    75  66  73 CALM      29.95S
MADISON        CLOUDY    73  66  78 S5        29.95S
WILLMAR        FAIR      72  66  83 SE3       29.98F
$$
MNZ033>034-036-042>043-049>051-058-059-280000-
   Central Minnesota

CITY           SKY/WX    TMP DP  RH WIND       PRES   REMARKS
ST CLOUD       PTSUNNY   73  62  68 S13       29.98F
SAUK CENTRE    FAIR      73  65  76 S8        29.97F
PAYNESVILLE    PTSUNNY   71  63  75 E6        29.99S
AITKIN         CLOUDY    73  63  68 S7        29.98S
PINE RIVER     CLOUDY    73  64  73 S3        30.00F
BRAINERD       CLOUDY    72  62  71 S13       29.98F
STAPLES        CLOUDY    72  63  73 S12       29.98S
LONG PRAIRIE   FAIR      72  64  78 S5        29.98F
LITTLE FALLS   CLOUDY    73  61  64 S7        29.98F
LITCHFIELD     PTSUNNY   70  64  83 SE6       29.99F
BUFFALO        PTSUNNY   73  60  64 S6        30.01S
MAPLE LAKE     PTSUNNY   72  64  76 S3        30.01S
$$
MNZ037-044-045-052-053-280000-
   East Central Minnesota

CITY           SKY/WX    TMP DP  RH WIND       PRES   REMARKS
PRINCETON      CLOUDY    75  63  64 SE8       30.00F
MORA           CLOUDY    70  59  68 S7        30.03S
CAMBRIDGE      CLOUDY    75  61  60 SE6       29.99F
RUSH CITY      CLOUDY    71  61  70 S7        30.02S
MOOSE LAKE     CLOUDY    70  59  68 S5        29.99F
HINCKLEY       CLOUDY    72  63  73 SE5       30.01S
CLOQUET        PTSUNNY   72  55  56 S5        30.01F
MCGREGOR       PTSUNNY   72  61  68 SE8       30.00F
$$
MNZ071>073-080-081-089-090-097-098-280000-
   Southwest Minnesota

CITY           SKY/WX    TMP DP  RH WIND       PRES   REMARKS
MONTEVIDEO     CLOUDY    73  66  78 S3        29.98S
GRANITE FALLS  CLOUDY    69  64  82 SE7       29.98S
CANBY          CLOUDY    73  69  87 S5        29.97S
MARSHALL       CLOUDY    73  64  73 S7        29.99S
REDWOOD FALLS  CLOUDY    68  65  90 SE9       29.98F
OLIVIA         CLOUDY    68  63  83 S6        29.98S
PIPESTONE      PTSUNNY   73  64  73 SE8       30.01R
WINDOM         PTSUNNY   70  63  78 SE12      30.03S
WORTHINGTON    CLOUDY    70  63  78 E5        30.05R
JACKSON        MOSUNNY   70  63  78 SE10      30.04F
TRACY          CLOUDY    75  68  79 S8        29.99S
SLAYTON        PTSUNNY   70  66  86 SE8       30.03R
$$
MNZ065>067-074>077-082>085-091>093-280000-
   South Central Minnesota

CITY           SKY/WX    TMP DP  RH WIND       PRES   REMARKS
MANKATO        CLOUDY    66  59  77 S9        30.02F
NEW ULM        CLOUDY    66  64  94 S12       29.99F
ST JAMES       PTSUNNY   70  64  83 S8        30.03F
FAIRMONT       CLOUDY    70  57  64 S8        30.03F
GLENCOE        PTSUNNY   70  64  80 SE6       30.00F
FARIBAULT      PTSUNNY   70  61  73 S7        30.04R
OWATONNA       LGT RAIN  70  57  64 S13G20    30.04R
WASECA         CLOUDY    64  59  82 MISG      30.05R
ALBERT LEA     CLOUDY    70  61  73 S8        30.05F
$$
MNZ078>079-086>088-094>096-280000-
   Southeast Minnesota

CITY           SKY/WX    TMP DP  RH WIND       PRES   REMARKS
ROCHESTER      CLOUDY    69  60  73 S7        30.06F
RED WING       CLOUDY    75  59  57 S7        30.03F
STANTON        PTSUNNY   73  58  59 S7        30.01F
DODGE CENTER   CLOUDY    68  59  73 S6        30.03F
WINONA         CLOUDY    73  59  60 CALM      30.07S
AUSTIN         CLOUDY    68  61  77 S6        30.03F
PRESTON        CLOUDY    69  58  68 S8        30.10S
$$
ABBREVIATIONS USED IN REMARKS
   TC - TEMPERATURES IN CELSIUS
  WCI - WIND CHILL INDEX
   HX - HEAT INDEX
  VSB - VISIBILITY
$$



USA.gov is the U.S. government's official web portal to all federal, state and local government web resources and services.